User: anonymous   Login
Location: Pasadena-CA
(34.1440°N, 118.1100°W)
Time: 21:32:30
(UTC-07:00)
Language:

XW-2D - Orbit

View from above orbital plane
View from above orbital plane
View from above satellite
View from above satellite

Ground track
Ground track

The orbit data is extracted from the following two-line orbital elements,

1 40907U 15049J   22179.88574142  .00004804  00000-0  22684-3 0  9990
2 40907  97.4909 183.1974 0011770 321.9508 165.7842 15.19854356374708
Epoch (UTC): 28 June 2022 21:15:28
Eccentricity: 0.0011770
inclination: 97.4909°
perigee height: 498 km
apogee height: 514 km
right ascension of ascending node: 183.1974°
argument of perigee: 321.9508°
revolutions per day: 15.19854356
mean anomaly at epoch: 165.7842°
orbit number at epoch: 37470

The dashed part of the orbit path shows where the satellite is in the earth's shadow,  

DLR